TimeCST,TemperatureF,Dew PointF,Humidity,Sea Level PressureIn,VisibilityMPH,Wind Direction,Wind SpeedMPH,Gust SpeedMPH,PrecipitationIn,Events,Conditions,WindDirDegrees,DateUTC
12:53 AM,46.9,39.0,74,29.79,10.0,South,15.0,-,N/A,,Partly Cloudy,190,2013-01-27 06:53:00
1:53 AM,45.0,39.0,80,29.78,10.0,SSW,15.0,-,N/A,,Clear,200,2013-01-27 07:53:00
2:53 AM,45.0,37.9,76,29.77,10.0,SSW,15.0,-,N/A,,Clear,200,2013-01-27 08:53:00
3:53 AM,44.1,37.9,79,29.75,10.0,South,16.1,-,N/A,,Clear,190,2013-01-27 09:53:00
4:53 AM,45.0,39.0,80,29.75,10.0,SSW,18.4,-,N/A,,Clear,200,2013-01-27 10:53:00
5:53 AM,42.1,37.9,85,29.75,10.0,SSW,11.5,-,N/A,,Clear,200,2013-01-27 11:53:00
6:53 AM,44.1,39.0,82,29.77,10.0,SSW,12.7,-,N/A,,Clear,210,2013-01-27 12:53:00
7:53 AM,43.0,37.9,82,29.76,10.0,SSW,16.1,-,N/A,,Clear,200,2013-01-27 13:53:00
8:53 AM,46.9,39.9,77,29.77,10.0,SSW,18.4,-,N/A,,Clear,210,2013-01-27 14:53:00
9:53 AM,54.0,39.0,57,29.74,10.0,SW,21.9,-,N/A,,Clear,220,2013-01-27 15:53:00
10:53 AM,61.0,36.0,39,29.73,10.0,WSW,33.4,41.4,N/A,,Clear,240,2013-01-27 16:53:00
11:53 AM,64.9,35.1,33,29.72,10.0,SW,29.9,39.1,N/A,,Clear,230,2013-01-27 17:53:00
12:53 PM,66.9,35.1,31,29.70,10.0,SW,31.1,35.7,N/A,,Clear,230,2013-01-27 18:53:00
1:53 PM,70.0,33.1,26,29.67,10.0,SW,27.6,33.4,N/A,,Clear,230,2013-01-27 19:53:00
2:53 PM,71.1,33.1,25,29.66,10.0,SW,26.5,34.5,N/A,,Clear,230,2013-01-27 20:53:00
3:53 PM,71.1,32.0,24,29.67,10.0,WSW,20.7,28.8,N/A,,Clear,240,2013-01-27 21:53:00
4:53 PM,68.0,30.9,25,29.68,10.0,SW,23.0,28.8,N/A,,Clear,230,2013-01-27 22:53:00
5:53 PM,63.0,30.9,30,29.70,10.0,SW,17.3,-,N/A,,Clear,230,2013-01-27 23:53:00
6:53 PM,55.9,30.0,37,29.74,10.0,SW,12.7,-,N/A,,Clear,220,2013-01-28 00:53:00
7:53 PM,55.0,30.9,40,29.76,10.0,SW,12.7,-,N/A,,Clear,230,2013-01-28 01:53:00
8:53 PM,53.1,30.9,43,29.77,10.0,WSW,15.0,-,N/A,,Clear,240,2013-01-28 02:53:00
9:53 PM,51.1,32.0,48,29.76,10.0,WSW,16.1,-,N/A,,Clear,240,2013-01-28 03:53:00
10:53 PM,48.0,32.0,54,29.76,10.0,WSW,12.7,-,N/A,,Clear,250,2013-01-28 04:53:00
11:53 PM,45.0,32.0,60,29.76,10.0,WSW,13.8,-,N/A,,Clear,250,2013-01-28 05:53:00